This demonstration page uses our WeatherBlox Daily Observations layout. Learn more.

Left ArrowRight Arrow

Hourly Observations for November 19, 2018

Temp ( °F °C ) Dew Point ( °F °C ) Humidity (%) Winds ( mph kmh ) Pressure ( in mb ) Visibility ( mi km ) Precip ( " mm )
12:53 am 00:53 Clear 75 23.9 62 16.7 64 64 NE 6 9 30.00 1016 10 16 0.00 0.00
1:53 am 01:53 Clear 75 23.9 65 18.3 71 71 NE 5 7 29.98 1015 10 16 0.00 0.00
2:53 am 02:53 Clear 74 23.3 65 18.3 74 74 NNE 5 7 29.98 1015 10 16 0.00 0.00
3:53 am 03:53 Clear 74 23.3 66 18.9 76 76 Calm 29.97 1015 10 16 0.00 0.00
4:53 am 04:53 Clear 72 22.2 66 18.9 82 82 N 5 7 29.97 1015 10 16 0.00 0.00
5:53 am 05:53 Clear 73 22.8 66 18.9 79 79 SE 5 7 29.99 1016 10 16 0.00 0.00
6:53 am 06:53 Sunny 74 23.3 66 18.9 76 76 E 6 9 30.00 1016 10 16 0.00 0.00
7:53 am 07:53 Sunny 77 25 66 18.9 69 69 Calm 30.01 1016 10 16 0.00 0.00
8:53 am 08:53 Sunny 81 27.2 67 19.4 62 62 NW 6 9 30.03 1017 10 16 0.00 0.00
9:53 am 09:53 Partly Cloudy 81 27.2 68 20 65 65 WSW 7 11 30.03 1017 10 16 0.00 0.00
10:53 am 10:53 Partly Cloudy 82 27.8 69 20.6 65 65 WSW 8 13 30.01 1016 10 16 0.00 0.00
11:53 am 11:53 Partly Cloudy 82 27.8 70 21.1 67 67 SSW 13 20 29.99 1016 10 16 0.00 0.00
12:53 pm 12:53 Partly Cloudy 83 28.3 70 21.1 65 65 SSW 13 20 29.97 1015 10 16 0.00 0.00
1:53 pm 13:53 Partly Cloudy 83 28.3 70 21.1 65 65 SSW 12 19 29.95 1014 10 16 0.00 0.00
2:53 pm 14:53 Partly Cloudy 84 28.9 71 21.7 65 65 SSW 13 20 29.94 1014 10 16 0.00 0.00
3:53 pm 15:53 Partly Cloudy 82 27.8 70 21.1 67 67 WSW 8 13 29.95 1014 10 16 0.00 0.00
4:53 pm 16:53 Partly Cloudy 81 27.2 68 20 65 65 VRB 5 7 29.95 1014 10 16 0.00 0.00
5:15 pm 17:15 Sunny 84 28.9 61 16.1 46 46 NE 16 26 29.94 1014 10 16 0.00 0.00
5:53 pm 17:53 Clear 80 26.7 68 20 67 67 ESE 8 13 29.96 1015 10 16 0.00 0.00
6:53 pm 18:53 Mostly Clear 79 26.1 61 16.1 54 54 ENE 8 13 29.98 1015 10 16 0.00 0.00
7:53 pm 19:53 Partly Cloudy 77 25 60 15.6 56 56 NNE 10 17 30.00 1016 10 16 0.00 0.00
8:53 pm 20:53 Partly Cloudy 76 24.4 60 15.6 58 58 NNE 10 17 30.01 1016 10 16 0.00 0.00
9:53 pm 21:53 Clear 75 23.9 61 16.1 62 62 ENE 8 13 30.01 1016 10 16 0.00 0.00
10:28 pm 22:28 Mostly Cloudy 76 24.4 65 18.3 69 69 NE 7 11 30.03 1017 10 16 0.00 0.00
10:53 pm 22:53 Cloudy 76 24.4 62 16.7 62 62 NE 5 7 30.01 1016 10 16 0.00 0.00
11:20 pm 23:20 Partly Cloudy 75 23.9 62 16.7 64 64 NNE 7 11 30.00 1016 10 16 0.00 0.00
11:53 pm 23:53 Clear 74 23.3 65 18.3 74 74 NE 3 6 30.01 1016 10 16 0.00 0.00

Powered by AerisWeather